Tracking 29892 objects as of 21-Nov-2024
HD Live streaming from Space Station
objects crossing your sky now

DELTA 1 DEB

Track DELTA 1 DEB now!
10-day predictions


NORAD ID: 7074
Int'l Code: 1973-086BS
Perigee: 1,243.3 km
Apogee: 1,517.1 km
Inclination: 101.9 °
Period: 113.2 minutes
Semi major axis: 7751 km
RCS: 0.0705 m2 (small)
Launch date: November 6, 1973
Source: United States (US)
Launch site: AIR FORCE WESTERN TEST RANGE (AFWTR)

Note: This is SATELLITE DEBRIS
Your satellite tracking list
Your tracking list is empty




NASA's NSSDC Master Catalog

Two Line Element Set (TLE):
1  7074U 73086BS  24326.06365834 -.00000022  00000-0  12029-3 0  9996
2  7074 101.9401  44.5191 0176639 167.0718 315.0572 12.72178728369660
Source of the keplerian elements: AFSPC